Time,TemperatureF,DewpointF,PressureIn,WindDirection,WindDirectionDegrees,WindSpeedMPH,WindSpeedGustMPH,Humidity,HourlyPrecipIn,Conditions,Clouds,dailyrainin,SoftwareType,DateUTC
2013-07-04 00:07:00,75.1,72.0,30.11,SE,142,0.0,0.0,89,0.00,,,0.00,weatherlink.com 1.10,2013-07-04 04:07:00,
2013-07-04 00:22:00,74.6,72.0,30.12,SE,142,0.0,0.0,90,0.00,,,0.00,weatherlink.com 1.10,2013-07-04 04:22:00,
2013-07-04 00:37:00,74.2,72.0,30.12,SE,142,0.0,0.0,91,0.00,,,0.00,weatherlink.com 1.10,2013-07-04 04:37:00,
2013-07-04 00:52:00,73.7,72.0,30.12,SE,142,0.0,0.0,93,0.00,,,0.00,weatherlink.com 1.10,2013-07-04 04:52:00,
2013-07-04 01:07:00,73.3,72.0,30.11,SE,142,0.0,0.0,94,0.00,,,0.00,weatherlink.com 1.10,2013-07-04 05:07:00,
2013-07-04 01:22:00,73.2,71.0,30.12,SE,142,0.0,0.0,94,0.00,,,0.00,weatherlink.com 1.10,2013-07-04 05:22:00,
2013-07-04 01:37:00,73.0,72.0,30.12,SE,142,0.0,0.0,95,0.00,,,0.00,weatherlink.com 1.10,2013-07-04 05:37:00,
2013-07-04 01:52:00,72.8,71.0,30.12,SE,142,0.0,0.0,95,0.00,,,0.00,weatherlink.com 1.10,2013-07-04 05:52:00,
2013-07-04 02:07:00,72.6,71.0,30.13,SE,142,0.0,0.0,95,0.00,,,0.00,weatherlink.com 1.10,2013-07-04 06:07:00,
2013-07-04 02:22:00,72.4,71.0,30.12,SE,142,0.0,0.0,95,0.00,,,0.00,weatherlink.com 1.10,2013-07-04 06:22:00,
2013-07-04 02:37:00,72.2,71.0,30.12,SE,142,0.0,0.0,95,0.00,,,0.00,weatherlink.com 1.10,2013-07-04 06:37:00,
2013-07-04 02:52:00,72.0,71.0,30.12,SE,142,0.0,0.0,96,0.00,,,0.00,weatherlink.com 1.10,2013-07-04 06:52:00,
2013-07-04 03:07:00,71.9,71.0,30.12,SE,142,0.0,0.0,96,0.00,,,0.00,weatherlink.com 1.10,2013-07-04 07:07:00,
2013-07-04 03:22:00,71.6,70.0,30.12,SE,142,0.0,0.0,96,0.00,,,0.00,weatherlink.com 1.10,2013-07-04 07:22:00,
2013-07-04 03:37:00,71.4,70.0,30.13,SE,142,0.0,0.0,96,0.00,,,0.00,weatherlink.com 1.10,2013-07-04 07:37:00,
2013-07-04 03:52:00,71.3,70.0,30.12,SE,142,0.0,0.0,96,0.00,,,0.00,weatherlink.com 1.10,2013-07-04 07:52:00,
2013-07-04 04:07:00,71.4,71.0,30.12,SE,142,0.0,0.0,97,0.00,,,0.00,weatherlink.com 1.10,2013-07-04 08:07:00,
2013-07-04 04:22:00,71.3,70.0,30.12,SE,142,0.0,0.0,97,0.00,,,0.00,weatherlink.com 1.10,2013-07-04 08:22:00,
2013-07-04 04:37:00,71.1,70.0,30.12,SE,142,0.0,0.0,97,0.00,,,0.00,weatherlink.com 1.10,2013-07-04 08:37:00,
2013-07-04 04:52:00,70.9,70.0,30.13,SE,142,0.0,0.0,97,0.00,,,0.00,weatherlink.com 1.10,2013-07-04 08:52:00,
2013-07-04 05:07:00,70.6,70.0,30.13,SE,142,0.0,0.0,97,0.00,,,0.00,weatherlink.com 1.10,2013-07-04 09:07:00,
2013-07-04 05:22:00,70.5,70.0,30.13,SE,142,0.0,0.0,97,0.00,,,0.00,weatherlink.com 1.10,2013-07-04 09:22:00,
2013-07-04 05:37:00,70.6,70.0,30.13,SE,142,0.0,0.0,98,0.00,,,0.00,weatherlink.com 1.10,2013-07-04 09:37:00,
2013-07-04 05:52:00,70.8,70.0,30.13,SE,142,0.0,0.0,98,0.00,,,0.00,weatherlink.com 1.10,2013-07-04 09:52:00,
2013-07-04 06:07:00,70.9,70.0,30.13,SW,228,0.0,0.0,98,0.00,,,0.00,weatherlink.com 1.10,2013-07-04 10:07:00,
2013-07-04 06:22:00,71.5,71.0,30.13,SSE,156,0.0,5.0,99,0.00,,,0.00,weatherlink.com 1.10,2013-07-04 10:22:00,
2013-07-04 06:37:00,71.8,72.0,30.13,SSE,156,0.0,5.0,99,0.00,,,0.00,weatherlink.com 1.10,2013-07-04 10:37:00,
2013-07-04 06:52:00,72.3,72.0,30.14,SSE,151,0.0,4.0,99,0.00,,,0.00,weatherlink.com 1.10,2013-07-04 10:52:00,
2013-07-04 07:07:00,73.0,73.0,30.14,SSE,148,2.0,4.0,99,0.00,,,0.00,weatherlink.com 1.10,2013-07-04 11:07:00,
2013-07-04 07:22:00,74.0,73.0,30.15,SSE,154,3.0,5.0,97,0.00,,,0.00,weatherlink.com 1.10,2013-07-04 11:22:00,
2013-07-04 07:37:00,74.6,73.0,30.15,SE,136,3.0,3.0,95,0.00,,,0.00,weatherlink.com 1.10,2013-07-04 11:37:00,
2013-07-04 07:53:00,75.5,73.0,30.15,SSE,149,0.0,6.0,93,0.00,,,0.00,weatherlink.com 1.10,2013-07-04 11:53:00,
2013-07-04 08:08:00,76.3,74.0,30.15,SE,138,1.0,5.0,91,0.00,,,0.00,weatherlink.com 1.10,2013-07-04 12:08:00,
2013-07-04 08:23:00,77.0,74.0,30.15,SE,130,3.0,8.0,90,0.00,,,0.00,weatherlink.com 1.10,2013-07-04 12:23:00,
2013-07-04 08:38:00,77.5,74.0,30.15,ESE,122,0.0,7.0,88,0.00,,,0.00,weatherlink.com 1.10,2013-07-04 12:38:00,
2013-07-04 08:53:00,78.0,74.0,30.16,SSE,151,0.0,8.0,87,0.00,,,0.00,weatherlink.com 1.10,2013-07-04 12:53:00,
2013-07-04 09:08:00,78.7,75.0,30.16,SSE,154,0.0,9.0,87,0.00,,,0.00,weatherlink.com 1.10,2013-07-04 13:08:00,
2013-07-04 09:23:00,80.0,76.0,30.15,SSE,166,0.0,4.0,86,0.00,,,0.00,weatherlink.com 1.10,2013-07-04 13:23:00,
2013-07-04 09:38:00,80.2,75.0,30.15,SE,134,5.0,8.0,84,0.00,,,0.00,weatherlink.com 1.10,2013-07-04 13:38:00,
2013-07-04 09:53:00,81.8,75.0,30.15,SSE,154,0.0,5.0,80,0.00,,,0.00,weatherlink.com 1.10,2013-07-04 13:53:00,
2013-07-04 10:08:00,81.9,76.0,30.14,East,94,0.0,11.0,81,0.00,,,0.00,weatherlink.com 1.10,2013-07-04 14:08:00,
2013-07-04 10:23:00,82.9,75.0,30.14,East,84,5.0,7.0,78,0.00,,,0.00,weatherlink.com 1.10,2013-07-04 14:23:00,
2013-07-04 10:38:00,83.2,76.0,30.14,WSW,238,0.0,6.0,78,0.00,,,0.00,weatherlink.com 1.10,2013-07-04 14:38:00,
2013-07-04 10:53:00,83.9,76.0,30.13,ESE,122,0.0,9.0,77,0.00,,,0.00,weatherlink.com 1.10,2013-07-04 14:53:00,
2013-07-04 11:08:00,84.9,76.0,30.13,SSE,159,1.0,9.0,74,0.00,,,0.00,weatherlink.com 1.10,2013-07-04 15:08:00,
2013-07-04 11:23:00,85.9,76.0,30.13,SE,138,0.0,9.0,71,0.00,,,0.00,weatherlink.com 1.10,2013-07-04 15:23:00,
2013-07-04 11:38:00,86.3,76.0,30.13,SE,136,0.0,9.0,72,0.00,,,0.00,weatherlink.com 1.10,2013-07-04 15:38:00,
2013-07-04 11:53:00,86.5,76.0,30.12,South,174,5.0,7.0,70,0.00,,,0.00,weatherlink.com 1.10,2013-07-04 15:53:00,
2013-07-04 12:08:00,86.6,75.0,30.11,SE,142,0.0,12.0,69,0.00,,,0.00,weatherlink.com 1.10,2013-07-04 16:08:00,
2013-07-04 12:23:00,86.4,74.0,30.11,SSE,164,8.0,11.0,67,0.00,,,0.00,weatherlink.com 1.10,2013-07-04 16:23:00,
2013-07-04 12:38:00,87.3,76.0,30.10,ESE,114,7.0,11.0,68,0.00,,,0.00,weatherlink.com 1.10,2013-07-04 16:38:00,
2013-07-04 12:53:00,87.5,75.0,30.10,South,177,0.0,6.0,66,0.00,,,0.00,weatherlink.com 1.10,2013-07-04 16:53:00,
2013-07-04 13:08:00,87.7,76.0,30.10,SSE,157,0.0,11.0,68,0.00,,,0.00,weatherlink.com 1.10,2013-07-04 17:08:00,
2013-07-04 13:23:00,88.3,76.0,30.09,ENE,58,0.0,11.0,67,0.00,,,0.00,weatherlink.com 1.10,2013-07-04 17:23:00,
2013-07-04 13:38:00,88.5,76.0,30.08,SSE,162,6.0,11.0,67,0.00,,,0.00,weatherlink.com 1.10,2013-07-04 17:38:00,
2013-07-04 13:53:00,87.4,76.0,30.08,SE,132,0.0,9.0,69,0.00,,,0.00,weatherlink.com 1.10,2013-07-04 17:53:00,
2013-07-04 14:08:00,87.2,77.0,30.08,SE,142,0.0,8.0,71,0.00,,,0.00,weatherlink.com 1.10,2013-07-04 18:08:00,
2013-07-04 14:23:00,88.1,76.0,30.07,SE,129,3.0,12.0,68,0.00,,,0.00,weatherlink.com 1.10,2013-07-04 18:23:00,
2013-07-04 14:38:00,88.0,76.0,30.07,SE,124,0.0,13.0,68,0.00,,,0.00,weatherlink.com 1.10,2013-07-04 18:38:00,
2013-07-04 14:53:00,89.4,77.0,30.06,SE,134,0.0,7.0,67,0.00,,,0.00,weatherlink.com 1.10,2013-07-04 18:53:00,
2013-07-04 15:08:00,90.5,78.0,30.06,SE,146,0.0,6.0,66,0.00,,,0.00,weatherlink.com 1.10,2013-07-04 19:08:00,
2013-07-04 15:23:00,90.3,76.0,30.05,ESE,123,0.0,12.0,63,0.00,,,0.00,weatherlink.com 1.10,2013-07-04 19:23:00,
2013-07-04 15:38:00,89.6,77.0,30.05,SSE,153,0.0,8.0,67,0.00,,,0.00,weatherlink.com 1.10,2013-07-04 19:38:00,
2013-07-04 15:53:00,90.5,78.0,30.04,East,94,9.0,9.0,66,0.00,,,0.00,weatherlink.com 1.10,2013-07-04 19:53:00,
2013-07-04 16:08:00,90.5,77.0,30.04,SE,140,0.0,8.0,64,0.00,,,0.00,weatherlink.com 1.10,2013-07-04 20:08:00,
2013-07-04 16:23:00,89.0,77.0,30.04,North,360,0.0,7.0,67,0.00,,,0.00,weatherlink.com 1.10,2013-07-04 20:23:00,
2013-07-04 16:38:00,89.7,77.0,30.03,North,355,0.0,9.0,67,0.00,,,0.00,weatherlink.com 1.10,2013-07-04 20:38:00,
2013-07-04 16:54:00,90.8,77.0,30.03,SE,145,8.0,8.0,65,0.00,,,0.00,weatherlink.com 1.10,2013-07-04 20:54:00,
2013-07-04 17:09:00,90.7,78.0,30.03,NE,43,0.0,8.0,67,0.00,,,0.00,weatherlink.com 1.10,2013-07-04 21:09:00,
2013-07-04 17:24:00,89.8,77.0,30.02,SSE,165,0.0,11.0,66,0.00,,,0.00,weatherlink.com 1.10,2013-07-04 21:24:00,
2013-07-04 17:39:00,89.5,77.0,30.02,ENE,78,0.0,8.0,67,0.00,,,0.00,weatherlink.com 1.10,2013-07-04 21:39:00,
2013-07-04 17:54:00,89.1,77.0,30.02,SE,130,0.0,8.0,67,0.00,,,0.00,weatherlink.com 1.10,2013-07-04 21:54:00,
2013-07-04 18:09:00,89.4,78.0,30.02,SE,136,5.0,9.0,68,0.00,,,0.00,weatherlink.com 1.10,2013-07-04 22:09:00,
2013-07-04 18:24:00,89.0,78.0,30.02,SSE,159,0.0,11.0,69,0.00,,,0.00,weatherlink.com 1.10,2013-07-04 22:24:00,
2013-07-04 18:39:00,88.8,77.0,30.02,SE,140,0.0,7.0,68,0.00,,,0.00,weatherlink.com 1.10,2013-07-04 22:39:00,
2013-07-04 18:54:00,88.4,77.0,30.02,SSE,157,0.0,7.0,69,0.00,,,0.00,weatherlink.com 1.10,2013-07-04 22:54:00,
2013-07-04 19:09:00,88.0,77.0,30.02,SE,144,0.0,6.0,70,0.00,,,0.00,weatherlink.com 1.10,2013-07-04 23:09:00,
2013-07-04 19:24:00,87.7,77.0,30.02,SE,140,0.0,6.0,70,0.00,,,0.00,weatherlink.com 1.10,2013-07-04 23:24:00,
2013-07-04 19:39:00,87.3,76.0,30.03,SSE,157,2.0,9.0,70,0.00,,,0.00,weatherlink.com 1.10,2013-07-04 23:39:00,
2013-07-04 19:54:00,86.3,76.0,30.03,SE,128,0.0,5.0,72,0.00,,,0.00,weatherlink.com 1.10,2013-07-04 23:54:00,
2013-07-04 20:09:00,85.4,76.0,30.04,SE,128,0.0,0.0,74,0.00,,,0.00,weatherlink.com 1.10,2013-07-05 00:09:00,
2013-07-04 20:24:00,84.7,76.0,30.04,SE,128,0.0,0.0,75,0.00,,,0.00,weatherlink.com 1.10,2013-07-05 00:24:00,
2013-07-04 20:39:00,83.9,76.0,30.04,SE,128,0.0,0.0,76,0.00,,,0.00,weatherlink.com 1.10,2013-07-05 00:39:00,
2013-07-04 20:54:00,83.4,76.0,30.05,SE,128,0.0,0.0,77,0.00,,,0.00,weatherlink.com 1.10,2013-07-05 00:54:00,
2013-07-04 21:09:00,82.7,75.0,30.05,SE,128,0.0,0.0,78,0.00,,,0.00,weatherlink.com 1.10,2013-07-05 01:09:00,
2013-07-04 21:24:00,82.0,75.0,30.06,SE,128,0.0,0.0,80,0.00,,,0.00,weatherlink.com 1.10,2013-07-05 01:24:00,
2013-07-04 21:39:00,81.3,75.0,30.06,SE,128,0.0,0.0,81,0.00,,,0.00,weatherlink.com 1.10,2013-07-05 01:39:00,
2013-07-04 21:54:00,80.5,75.0,30.06,SE,128,0.0,0.0,82,0.00,,,0.00,weatherlink.com 1.10,2013-07-05 01:54:00,
2013-07-04 22:09:00,80.0,75.0,30.06,SE,128,0.0,0.0,84,0.00,,,0.00,weatherlink.com 1.10,2013-07-05 02:09:00,
2013-07-04 22:24:00,79.5,74.0,30.07,SE,128,0.0,0.0,84,0.00,,,0.00,weatherlink.com 1.10,2013-07-05 02:24:00,
2013-07-04 22:39:00,78.9,74.0,30.07,SE,128,0.0,0.0,86,0.00,,,0.00,weatherlink.com 1.10,2013-07-05 02:39:00,
2013-07-04 22:54:00,78.4,74.0,30.08,SE,128,0.0,0.0,87,0.00,,,0.00,weatherlink.com 1.10,2013-07-05 02:54:00,
2013-07-04 23:09:00,77.9,74.0,30.09,SE,128,0.0,0.0,87,0.00,,,0.00,weatherlink.com 1.10,2013-07-05 03:09:00,
2013-07-04 23:24:00,77.4,74.0,30.09,SE,128,0.0,0.0,89,0.00,,,0.00,weatherlink.com 1.10,2013-07-05 03:24:00,
2013-07-04 23:39:00,76.9,74.0,30.10,SE,128,0.0,0.0,90,0.00,,,0.00,weatherlink.com 1.10,2013-07-05 03:39:00,
2013-07-04 23:54:00,76.5,74.0,30.10,SE,128,0.0,0.0,90,0.00,,,0.00,weatherlink.com 1.10,2013-07-05 03:54:00,